Weather in Barsukovskaya

Russia / Stavropol Krai     44°45′41″N   41°49′04″E
temp.,
°C
wind,
m/s
gust,
m/s
humid.,
%
clouds,
%
prec.,
mm/h
press.,
hPa
HPBL,
m
21 april, wed
wed2100:00+12nw41062100 0.0 1012571
03:00+9nnw378347 0.7 1015351
06:00+9nnw1292100 2.9 1017206
09:00+9nw2391100 4.6 1019348
12:00+9wnw2392100 1.6 1020288
15:00+10sw0092100 3.2 1020184
18:00+10sse2395100 0.6 1021127
21:00+9se3595100 1.3 1022187
22 april, thu
thu2200:00+10ese2392100 0.1 1021106
03:00+10ese2590100 0.1 1021135
06:00+10ese2493100 0.1 1021169
09:00+11e3789100 0.4 1022551
12:00+13e5677100 0.1 1022943
15:00+14e4675100 0.1 1021995
18:00+12ese4884100 0.0 1021496
21:00+10e1195100 1.1 102224
23 april, fri
fri2300:00+10ssw1193100 1.3 102221
03:00+10w1190100 1.4 102214
06:00+9w359680 0.0 1024221
09:00+12wnw348143 0.1 1023664
12:00+16wnw34575 0.1 10221539
15:00+17nw44485 0.1 10211851
18:00+15nnw22645 0.0 102143
21:00+11e226722 0.0 102013
24 april, sat
sat2400:00+10e2276100 0.0 101926
03:00+10se2277100 0.0 101843
06:00+10wsw228294 0.0 101944
09:00+14wnw236773 0.0 1019479
12:00+17wnw46505 0.0 10181623
15:00+18wnw784870 0.0 10181949
18:00+15nw4767100 0.0 1019344
21:00+13wnw2269100 0.0 102039
25 april, sun
sun2500:00+11wnw2374100 0.0 102090
03:00+9wnw1187100 0.0 102014
06:00+10ne1188100 0.0 102067
09:00+12e2382100 0.2 1018590
12:00+11ne1394100 3.4 1017256
15:00+11n2397100 13.9 1016245
18:00+9n3498100 7.1 1017244
21:00+8nne2596100 9.8 1017374